Location: Izdebno
(52.6670°N, 16.2170°E)
Time: 10:27:17
(UTC+01:00)

Vanguard 2 Rocket - All Passes

Search period start: 23 February 2024 00:00
Search period end: 04 March 2024 00:00
Orbit: 554 x 3310 km, 32.9° (Epoch: 22 February)

Date Brightness Start Highest point End Pass type
(mag) Time Alt. Az. Time Alt. Az. Time Alt. Az.
23 Feb - 14:37:12 10° SSW 14:45:50 26° SSE 14:58:00 10° ESE daylight
23 Feb - 16:47:34 10° SW 16:59:12 36° S 17:15:22 10° ESE daylight
23 Feb - 19:00:37 10° WSW 19:13:49 31° SSW 19:29:45 10° SSE visible
23 Feb - 21:17:50 10° WSW 21:27:57 17° SW 21:38:31 10° S visible
24 Feb - 13:37:37 10° S 13:44:08 19° SE 13:52:47 10° ESE daylight
24 Feb - 15:46:28 10° SW 15:56:35 33° SSE 16:11:15 10° ESE daylight
24 Feb - 17:58:26 10° WSW 18:10:46 34° S 18:26:55 10° SE visible
24 Feb - 20:13:27 10° WSW 20:25:12 22° SSW 20:38:21 10° S visible
25 Feb - 12:40:07 10° SSE 12:42:49 11° SE 12:45:53 10° ESE daylight
25 Feb - 14:45:51 10° SSW 14:54:23 28° SSE 15:06:48 10° ESE daylight
25 Feb - 16:56:46 10° WSW 17:07:53 34° S 17:23:28 10° SE daylight
25 Feb - 19:10:19 10° WSW 19:22:19 26° SSW 19:36:50 10° SSE visible
25 Feb - 21:31:08 10° WSW 21:36:04 11° SW 21:41:11 10° SSW visible
26 Feb - 13:45:49 10° SSW 13:52:35 21° SSE 14:02:02 10° ESE daylight
26 Feb - 15:55:33 10° SW 16:05:17 32° S 16:19:34 10° ESE daylight
26 Feb - 18:07:57 10° WSW 18:19:24 29° SSW 18:34:24 10° SE visible
26 Feb - 20:24:24 10° WSW 20:33:31 17° SW 20:43:37 10° S visible
27 Feb - 12:46:53 10° S 12:51:12 14° SE 12:56:37 10° ESE daylight
27 Feb - 14:54:46 10° SW 15:03:03 29° SSE 15:15:21 10° ESE daylight
27 Feb - 17:06:10 10° WSW 17:16:37 31° S 17:31:15 10° SE daylight
27 Feb - 19:20:32 10° WSW 19:30:48 21° SSW 19:43:07 10° S visible
28 Feb - 13:54:28 10° SSW 14:01:13 23° SSE 14:10:55 10° ESE daylight
28 Feb - 16:04:50 10° SW 16:14:05 30° S 16:27:38 10° SE daylight
28 Feb - 18:17:48 10° WSW 18:28:04 24° SSW 18:41:17 10° SSE visible
28 Feb - 20:38:41 10° SW 20:41:51 11° SW 20:45:09 10° SSW visible
29 Feb - 12:54:53 10° S 12:59:46 17° SSE 13:06:10 10° ESE daylight
29 Feb - 15:03:55 10° SW 15:11:52 28° S 15:23:40 10° ESE daylight
29 Feb - 17:15:49 10° WSW 17:25:24 26° SSW 17:38:36 10° SSE daylight
29 Feb - 19:31:47 10° WSW 19:39:19 15° SSW 19:47:58 10° S visible
01 Mar - 14:03:26 10° SSW 14:09:59 24° SSE 14:19:33 10° ESE daylight
01 Mar - 16:14:21 10° WSW 16:22:56 27° S 16:35:20 10° SE daylight
01 Mar - 18:28:14 10° WSW 18:36:44 19° SSW 18:47:18 10° S visible
02 Mar - 13:03:29 10° SSW 13:08:28 18° SSE 13:15:16 10° ESE daylight
02 Mar - 15:13:18 10° SW 15:20:45 26° S 15:31:44 10° SE daylight
02 Mar - 17:25:51 10° WSW 17:34:13 21° SSW 17:45:19 10° SSE daylight
03 Mar - 12:04:38 10° S 12:07:15 12° SSE 12:10:19 10° SE daylight
03 Mar - 14:12:39 10° SW 14:18:52 23° S 14:27:55 10° SE daylight
03 Mar - 16:24:08 10° WSW 16:31:51 23° SSW 16:42:36 10° SSE daylight
03 Mar - 18:40:10 10° SW 18:45:27 13° SSW 18:51:27 10° S visible
